Wetterdaten: Montag, 16.05.2016
Datum Zeit Auen-Temp. Temp gefhlt Luftfeuchte Luftdruck Regen Wind Richtung Richtung Sonnenschein Taupunkt Windben
16.05.2016 00:00 3,7 C 3,5 C 70 % 1019,6 hPa 0,0 mm 3,3 km/h (1 Bft) S-SW 202 0 min -1,3 C 4,8 km/h (1 Bft)
16.05.2016 00:05 3,7 C 3,5 C 70 % 1019,6 hPa 0,0 mm 2,7 km/h (1 Bft) W-SW 247 0 min -1,3 C 5,7 km/h (1 Bft)
16.05.2016 00:10 3,7 C 3,5 C 70 % 1019,6 hPa 0,0 mm 2,1 km/h (1 Bft) S 180 0 min -1,3 C 0,0 km/h (0 Bft)
16.05.2016 00:15 3,7 C 3,5 C 70 % 1019,6 hPa 0,0 mm 2,7 km/h (1 Bft) S-SW 202 0 min -1,3 C 10,7 km/h (2 Bft)
16.05.2016 00:20 3,7 C 3,5 C 70 % 1019,6 hPa 0,0 mm 2,7 km/h (1 Bft) S 180 0 min -1,3 C 3,0 km/h (1 Bft)
16.05.2016 00:25 3,7 C 3,5 C 70 % 1019,6 hPa 0,0 mm 3,0 km/h (1 Bft) S 180 0 min -1,3 C 11,9 km/h (2 Bft)
16.05.2016 00:30 3,7 C 3,5 C 70 % 1019,6 hPa 0,0 mm 3,6 km/h (1 Bft) S-SW 202 0 min -1,3 C 4,8 km/h (1 Bft)
16.05.2016 00:35 3,7 C 3,5 C 70 % 1019,7 hPa 0,0 mm 4,8 km/h (1 Bft) SW 225 0 min -1,3 C 12,2 km/h (2 Bft)
16.05.2016 00:40 3,7 C 3,5 C 70 % 1019,7 hPa 0,0 mm 4,5 km/h (1 Bft) W-SW 247 0 min -1,3 C 0,0 km/h (0 Bft)
16.05.2016 00:45 3,7 C 3,5 C 70 % 1019,7 hPa 0,0 mm 4,2 km/h (1 Bft) W-SW 247 0 min -1,3 C 8,0 km/h (2 Bft)
16.05.2016 00:50 3,7 C 3,5 C 70 % 1019,7 hPa 0,0 mm 3,3 km/h (1 Bft) SW 225 0 min -1,3 C 0,0 km/h (0 Bft)
16.05.2016 00:55 3,7 C 3,5 C 70 % 1019,7 hPa 0,0 mm 4,2 km/h (1 Bft) S 180 0 min -1,3 C 4,5 km/h (1 Bft)
16.05.2016 01:00 3,7 C 3,5 C 70 % 1019,7 hPa 0,0 mm 3,6 km/h (1 Bft) W-SW 247 0 min -1,3 C 8,0 km/h (2 Bft)
16.05.2016 01:05 3,7 C 3,5 C 70 % 1019,7 hPa 0,0 mm 5,1 km/h (1 Bft) S-SW 202 0 min -1,3 C 5,1 km/h (1 Bft)
16.05.2016 01:10 3,6 C 3,4 C 70 % 1019,7 hPa 0,0 mm 5,7 km/h (1 Bft) SW 225 0 min -1,3 C 4,8 km/h (1 Bft)
16.05.2016 01:15 3,6 C 3,4 C 70 % 1019,6 hPa 0,0 mm 4,8 km/h (1 Bft) SW 225 0 min -1,3 C 8,3 km/h (2 Bft)
16.05.2016 01:20 3,6 C 3,4 C 70 % 1019,6 hPa 0,0 mm 3,6 km/h (1 Bft) S 180 0 min -1,3 C 0,0 km/h (0 Bft)
16.05.2016 01:25 3,6 C 3,4 C 70 % 1019,6 hPa 0,0 mm 3,9 km/h (1 Bft) W-SW 247 0 min -1,3 C 6,9 km/h (2 Bft)
16.05.2016 01:30 3,6 C 3,4 C 70 % 1019,6 hPa 0,0 mm 3,6 km/h (1 Bft) W-SW 247 0 min -1,3 C 4,5 km/h (1 Bft)
16.05.2016 01:35 3,6 C 3,4 C 70 % 1019,6 hPa 0,0 mm 3,0 km/h (1 Bft) SW 225 0 min -1,3 C 5,1 km/h (1 Bft)
16.05.2016 01:36 3,6 C 3,4 C 70 % 1019,6 hPa 0,0 mm 3,0 km/h (1 Bft) SW 225 0 min -1,3 C 3,0 km/h (1 Bft)
16.05.2016 01:37 3,6 C 3,4 C 70 % 1019,6 hPa 0,0 mm 3,0 km/h (1 Bft) SW 225 0 min -1,3 C 3,0 km/h (1 Bft)
16.05.2016 01:40 3,6 C 3,4 C 70 % 1019,6 hPa 0,0 mm 3,0 km/h (1 Bft) SW 225 0 min -1,3 C 3,0 km/h (1 Bft)
16.05.2016 01:45 3,6 C 3,4 C 70 % 1019,6 hPa 0,0 mm 2,4 km/h (1 Bft) W-SW 247 0 min -1,3 C 0,0 km/h (0 Bft)
16.05.2016 01:50 3,6 C 3,4 C 70 % 1019,6 hPa 0,0 mm 0,9 km/h (0 Bft) S 180 0 min -1,3 C 0,0 km/h (0 Bft)
16.05.2016 01:55 3,6 C 3,4 C 70 % 1019,5 hPa 0,0 mm 0,3 km/h (0 Bft) SW 225 0 min -1,3 C 0,0 km/h (0 Bft)
16.05.2016 02:00 3,6 C 3,4 C 70 % 1019,5 hPa 0,0 mm 0,6 km/h (0 Bft) W-SW 247 0 min -1,3 C 4,2 km/h (1 Bft)
16.05.2016 02:05 3,5 C 3,3 C 70 % 1019,5 hPa 0,0 mm 2,1 km/h (1 Bft) W-SW 247 0 min -1,4 C 3,6 km/h (1 Bft)
16.05.2016 02:10 3,5 C 3,3 C 71 % 1019,5 hPa 0,0 mm 2,1 km/h (1 Bft) SO 135 0 min -1,3 C 5,4 km/h (1 Bft)
16.05.2016 02:15 3,5 C 3,3 C 71 % 1019,4 hPa 0,0 mm 1,8 km/h (1 Bft) O-NO 67 0 min -1,3 C 3,3 km/h (1 Bft)
16.05.2016 02:20 3,5 C 3,3 C 71 % 1019,4 hPa 0,0 mm 3,0 km/h (1 Bft) S 180 0 min -1,3 C 6,3 km/h (2 Bft)
16.05.2016 02:25 3,5 C 3,3 C 71 % 1019,4 hPa 0,0 mm 4,2 km/h (1 Bft) W-SW 247 0 min -1,3 C 3,6 km/h (1 Bft)
16.05.2016 02:30 3,5 C 3,1 C 71 % 1019,4 hPa 0,0 mm 6,0 km/h (2 Bft) S-SW 202 0 min -1,3 C 4,8 km/h (1 Bft)
16.05.2016 02:35 3,5 C 3,2 C 72 % 1019,2 hPa 0,0 mm 6,3 km/h (2 Bft) SW 225 0 min -1,1 C 13,1 km/h (3 Bft)
16.05.2016 02:40 3,5 C 3,2 C 72 % 1019,2 hPa 0,0 mm 6,0 km/h (2 Bft) S 180 0 min -1,1 C 6,0 km/h (2 Bft)
16.05.2016 02:45 3,4 C 3,2 C 72 % 1019,2 hPa 0,0 mm 5,1 km/h (1 Bft) SW 225 0 min -1,2 C 10,1 km/h (2 Bft)
16.05.2016 02:50 3,3 C 3,1 C 72 % 1019,2 hPa 0,0 mm 4,5 km/h (1 Bft) SW 225 0 min -1,3 C 5,4 km/h (1 Bft)
16.05.2016 02:55 3,2 C 2,8 C 72 % 1019,3 hPa 0,0 mm 5,7 km/h (1 Bft) S-SW 202 0 min -1,3 C 8,6 km/h (2 Bft)
16.05.2016 03:00 3,0 C 2,6 C 72 % 1019,3 hPa 0,0 mm 6,3 km/h (2 Bft) SW 225 0 min -1,5 C 10,1 km/h (2 Bft)
16.05.2016 03:05 3,0 C 2,4 C 73 % 1019,3 hPa 0,0 mm 7,2 km/h (2 Bft) S 180 0 min -1,4 C 5,7 km/h (1 Bft)
16.05.2016 03:10 2,7 C 2,2 C 74 % 1019,3 hPa 0,0 mm 6,6 km/h (2 Bft) S 180 0 min -1,5 C 10,4 km/h (2 Bft)
16.05.2016 03:15 2,6 C 2,3 C 74 % 1019,2 hPa 0,0 mm 5,1 km/h (1 Bft) S-SO 157 0 min -1,6 C 5,1 km/h (1 Bft)
16.05.2016 03:20 2,5 C 2,1 C 74 % 1019,2 hPa 0,0 mm 5,4 km/h (1 Bft) W-SW 247 0 min -1,7 C 10,1 km/h (2 Bft)
16.05.2016 03:25 2,7 C 2,2 C 74 % 1019,2 hPa 0,0 mm 6,3 km/h (2 Bft) SW 225 0 min -1,5 C 11,3 km/h (2 Bft)
16.05.2016 03:30 2,7 C 2,1 C 73 % 1019,2 hPa 0,0 mm 7,2 km/h (2 Bft) SW 225 0 min -1,6 C 8,3 km/h (2 Bft)
16.05.2016 03:35 2,8 C 2,4 C 73 % 1018,9 hPa 0,0 mm 5,4 km/h (1 Bft) SW 225 0 min -1,5 C 0,0 km/h (0 Bft)
16.05.2016 03:40 2,9 C 2,5 C 73 % 1018,9 hPa 0,0 mm 5,1 km/h (1 Bft) SW 225 0 min -1,5 C 6,9 km/h (2 Bft)
16.05.2016 03:45 3,0 C 2,7 C 72 % 1018,9 hPa 0,0 mm 5,1 km/h (1 Bft) SW 225 0 min -1,5 C 10,4 km/h (2 Bft)
16.05.2016 03:50 3,0 C 2,7 C 72 % 1018,9 hPa 0,0 mm 5,1 km/h (1 Bft) W-NW 292 0 min -1,5 C 5,7 km/h (1 Bft)
16.05.2016 03:55 3,0 C 2,8 C 72 % 1018,8 hPa 0,0 mm 4,8 km/h (1 Bft) W 270 0 min -1,5 C 3,9 km/h (1 Bft)
16.05.2016 04:00 2,9 C 2,7 C 73 % 1018,8 hPa 0,0 mm 4,2 km/h (1 Bft) S 180 0 min -1,5 C 3,3 km/h (1 Bft)
16.05.2016 04:05 2,9 C 2,7 C 74 % 1018,8 hPa 0,0 mm 3,9 km/h (1 Bft) W-SW 247 0 min -1,3 C 6,3 km/h (2 Bft)
16.05.2016 04:10 2,9 C 2,7 C 74 % 1018,8 hPa 0,0 mm 3,6 km/h (1 Bft) W-SW 247 0 min -1,3 C 3,3 km/h (1 Bft)
16.05.2016 04:15 3,0 C 2,8 C 72 % 1018,9 hPa 0,0 mm 2,7 km/h (1 Bft) W-SW 247 0 min -1,5 C 7,2 km/h (2 Bft)
16.05.2016 04:20 3,1 C 2,9 C 72 % 1018,9 hPa 0,0 mm 3,3 km/h (1 Bft) S 180 0 min -1,4 C 6,9 km/h (2 Bft)
16.05.2016 04:25 3,1 C 2,9 C 72 % 1018,9 hPa 0,0 mm 5,1 km/h (1 Bft) W-SW 247 0 min -1,4 C 7,5 km/h (2 Bft)
16.05.2016 04:30 3,1 C 2,9 C 71 % 1018,9 hPa 0,0 mm 5,4 km/h (1 Bft) SW 225 0 min -1,6 C 8,9 km/h (2 Bft)
16.05.2016 04:35 3,3 C 3,0 C 71 % 1018,7 hPa 0,0 mm 6,3 km/h (2 Bft) SW 225 0 min -1,4 C 17,9 km/h (3 Bft)
16.05.2016 04:36 3,4 C 3,0 C 70 % 1018,7 hPa 0,0 mm 6,6 km/h (2 Bft) SW 225 0 min -1,5 C 4,2 km/h (1 Bft)
16.05.2016 04:38 3,4 C 3,0 C 70 % 1018,7 hPa 0,0 mm 6,6 km/h (2 Bft) SW 225 0 min -1,5 C 4,2 km/h (1 Bft)
16.05.2016 04:40 3,4 C 3,0 C 70 % 1018,7 hPa 0,0 mm 6,6 km/h (2 Bft) SW 225 0 min -1,5 C 4,2 km/h (1 Bft)
16.05.2016 04:45 3,3 C 3,1 C 70 % 1018,7 hPa 0,0 mm 5,7 km/h (1 Bft) S-SW 202 0 min -1,6 C 6,9 km/h (2 Bft)
16.05.2016 04:50 3,3 C 3,1 C 70 % 1018,7 hPa 0,0 mm 4,8 km/h (1 Bft) W 270 0 min -1,6 C 3,0 km/h (1 Bft)
16.05.2016 04:55 3,3 C 3,1 C 70 % 1018,4 hPa 0,0 mm 3,3 km/h (1 Bft) SW 225 0 min -1,6 C 8,0 km/h (2 Bft)
16.05.2016 05:00 3,3 C 3,1 C 70 % 1018,4 hPa 0,0 mm 2,7 km/h (1 Bft) W-SW 247 0 min -1,6 C 5,7 km/h (1 Bft)
16.05.2016 05:05 3,2 C 3,0 C 70 % 1018,4 hPa 0,0 mm 1,8 km/h (1 Bft) SW 225 0 min -1,7 C 3,6 km/h (1 Bft)
16.05.2016 05:10 3,1 C 2,9 C 70 % 1018,4 hPa 0,0 mm 1,8 km/h (1 Bft) SW 225 0 min -1,8 C 9,2 km/h (2 Bft)
16.05.2016 05:15 3,3 C 3,1 C 70 % 1018,4 hPa 0,0 mm 3,6 km/h (1 Bft) W-SW 247 0 min -1,6 C 3,0 km/h (1 Bft)
16.05.2016 05:20 3,3 C 3,1 C 70 % 1018,4 hPa 0,0 mm 4,2 km/h (1 Bft) SW 225 0 min -1,6 C 4,8 km/h (1 Bft)
16.05.2016 05:25 3,3 C 3,1 C 70 % 1018,4 hPa 0,0 mm 2,4 km/h (1 Bft) SW 225 0 min -1,6 C 3,3 km/h (1 Bft)
16.05.2016 05:30 3,2 C 3,0 C 70 % 1018,4 hPa 0,0 mm 1,8 km/h (1 Bft) W-SW 247 0 min -1,7 C 5,1 km/h (1 Bft)
16.05.2016 05:35 3,3 C 3,1 C 70 % 1018,3 hPa 0,0 mm 1,2 km/h (1 Bft) W-NW 292 0 min -1,6 C 0,0 km/h (0 Bft)
16.05.2016 05:40 3,2 C 3,0 C 70 % 1018,3 hPa 0,0 mm 1,5 km/h (1 Bft) SW 225 0 min -1,7 C 3,6 km/h (1 Bft)
16.05.2016 05:45 3,2 C 3,0 C 70 % 1018,3 hPa 0,0 mm 0,9 km/h (0 Bft) NW 315 0 min -1,7 C 0,0 km/h (0 Bft)
16.05.2016 05:50 3,1 C 2,9 C 70 % 1018,3 hPa 0,0 mm 0,6 km/h (0 Bft) W 270 0 min -1,8 C 0,0 km/h (0 Bft)
16.05.2016 05:55 3,2 C 3,0 C 70 % 1018,3 hPa 0,0 mm 0,9 km/h (0 Bft) S 180 0 min -1,7 C 3,9 km/h (1 Bft)
16.05.2016 06:00 3,2 C 3,0 C 70 % 1018,3 hPa 0,0 mm 1,2 km/h (1 Bft) SW 225 0 min -1,7 C 4,8 km/h (1 Bft)
16.05.2016 06:05 3,3 C 3,1 C 70 % 1018,3 hPa 0,0 mm 2,4 km/h (1 Bft) W-SW 247 0 min -1,6 C 3,0 km/h (1 Bft)
16.05.2016 06:10 3,2 C 3,0 C 70 % 1018,3 hPa 0,0 mm 1,5 km/h (1 Bft) SW 225 0 min -1,7 C 0,0 km/h (0 Bft)
16.05.2016 06:15 3,2 C 3,0 C 70 % 1018,4 hPa 0,0 mm 0,6 km/h (0 Bft) W 270 0 min -1,7 C 0,0 km/h (0 Bft)
16.05.2016 06:20 3,2 C 3,0 C 70 % 1018,4 hPa 0,0 mm 0,3 km/h (0 Bft) W-SW 247 0 min -1,7 C 0,0 km/h (0 Bft)
16.05.2016 06:25 3,3 C 3,1 C 70 % 1018,4 hPa 0,0 mm 0,0 km/h (0 Bft) W-SW 247 0 min -1,6 C 0,0 km/h (0 Bft)
16.05.2016 06:30 3,3 C 3,1 C 71 % 1018,4 hPa 0,0 mm 0,6 km/h (0 Bft) W-SW 247 0 min -1,4 C 5,4 km/h (1 Bft)
16.05.2016 06:35 3,3 C 3,1 C 71 % 1018,4 hPa 0,0 mm 1,5 km/h (1 Bft) SO 135 0 min -1,4 C 0,0 km/h (0 Bft)
16.05.2016 06:40 3,3 C 3,1 C 72 % 1018,4 hPa 0,0 mm 0,9 km/h (0 Bft) SO 135 0 min -1,3 C 0,0 km/h (0 Bft)
16.05.2016 06:45 3,3 C 3,1 C 73 % 1018,4 hPa 0,0 mm 0,6 km/h (0 Bft) S-SW 202 0 min -1,1 C 7,2 km/h (2 Bft)
16.05.2016 06:50 3,4 C 3,2 C 72 % 1018,4 hPa 0,0 mm 2,7 km/h (1 Bft) O-NO 67 0 min -1,2 C 0,0 km/h (0 Bft)
16.05.2016 06:55 3,4 C 3,3 C 73 % 1018,4 hPa 0,0 mm 3,6 km/h (1 Bft) S 180 0 min -1,0 C 0,0 km/h (0 Bft)
16.05.2016 07:00 3,5 C 3,4 C 73 % 1018,4 hPa 0,0 mm 2,1 km/h (1 Bft) S-SW 202 0 min -0,9 C 0,0 km/h (0 Bft)
16.05.2016 07:05 3,7 C 3,6 C 72 % 1018,4 hPa 0,0 mm 3,0 km/h (1 Bft) W-SW 247 0 min -0,9 C 5,7 km/h (1 Bft)
16.05.2016 07:10 3,8 C 3,7 C 72 % 1018,4 hPa 0,0 mm 3,9 km/h (1 Bft) S-SO 157 0 min -0,8 C 0,0 km/h (0 Bft)
16.05.2016 07:15 4,0 C 3,9 C 72 % 1018,4 hPa 0,0 mm 3,3 km/h (1 Bft) W-SW 247 0 min -0,6 C 8,6 km/h (2 Bft)
16.05.2016 07:20 4,1 C 4,0 C 72 % 1018,4 hPa 0,0 mm 3,9 km/h (1 Bft) SW 225 0 min -0,5 C 5,7 km/h (1 Bft)
16.05.2016 07:25 4,2 C 4,2 C 72 % 1018,4 hPa 0,0 mm 6,0 km/h (2 Bft) SW 225 0 min -0,4 C 8,0 km/h (2 Bft)
16.05.2016 07:30 4,3 C 4,3 C 71 % 1018,4 hPa 0,0 mm 5,7 km/h (1 Bft) W-SW 247 0 min -0,5 C 6,3 km/h (2 Bft)
16.05.2016 07:35 4,6 C 4,7 C 71 % 1018,4 hPa 0,0 mm 4,8 km/h (1 Bft) S-SO 157 0 min -0,2 C 6,3 km/h (2 Bft)
16.05.2016 07:36 4,8 C 5,0 C 71 % 1018,4 hPa 0,0 mm 3,0 km/h (1 Bft) W 270 0 min -0,0 C 0,0 km/h (0 Bft)
16.05.2016 07:39 4,8 C 5,0 C 71 % 1018,4 hPa 0,0 mm 3,0 km/h (1 Bft) W 270 0 min -0,0 C 0,0 km/h (0 Bft)
16.05.2016 07:40 4,8 C 5,0 C 71 % 1018,4 hPa 0,0 mm 3,0 km/h (1 Bft) W 270 0 min -0,0 C 0,0 km/h (0 Bft)
16.05.2016 07:45 5,0 C 5,4 C 71 % 1018,4 hPa 0,0 mm 1,5 km/h (1 Bft) S 180 0 min 0,2 C 0,0 km/h (0 Bft)
16.05.2016 07:50 5,0 C 5,6 C 71 % 1018,4 hPa 0,0 mm 1,2 km/h (1 Bft) S 180 0 min 0,2 C 0,0 km/h (0 Bft)
16.05.2016 07:55 5,1 C 6,0 C 71 % 1018,6 hPa 0,0 mm 0,9 km/h (0 Bft) S 180 0 min 0,3 C 3,3 km/h (1 Bft)
16.05.2016 08:00 5,6 C 6,2 C 71 % 1018,6 hPa 0,0 mm 1,5 km/h (1 Bft) SO 135 0 min 0,8 C 0,0 km/h (0 Bft)
16.05.2016 08:05 7,5 C 9,6 C 71 % 1018,6 hPa 0,0 mm 2,4 km/h (1 Bft) SW 225 0 min 2,6 C 5,1 km/h (1 Bft)
16.05.2016 08:10 8,3 C 11,4 C 69 % 1018,6 hPa 0,0 mm 3,3 km/h (1 Bft) W 270 5 min 3,0 C 6,6 km/h (2 Bft)
16.05.2016 08:15 7,8 C 12,6 C 67 % 1018,4 hPa 0,0 mm 6,3 km/h (2 Bft) W-NW 292 5 min 2,1 C 8,0 km/h (2 Bft)
16.05.2016 08:20 7,0 C 11,3 C 66 % 1018,4 hPa 0,0 mm 8,3 km/h (2 Bft) W 270 5 min 1,1 C 5,1 km/h (1 Bft)
16.05.2016 08:25 7,2 C 10,0 C 66 % 1018,4 hPa 0,0 mm 9,2 km/h (2 Bft) W-SW 247 5 min 1,3 C 20,6 km/h (4 Bft)
16.05.2016 08:30 7,0 C 9,3 C 65 % 1018,4 hPa 0,0 mm 8,9 km/h (2 Bft) W 270 5 min 0,9 C 5,4 km/h (1 Bft)
16.05.2016 08:35 7,0 C 8,7 C 65 % 1018,8 hPa 0,0 mm 9,5 km/h (2 Bft) W-NW 292 0 min 0,9 C 24,4 km/h (4 Bft)
16.05.2016 08:40 6,8 C 7,9 C 64 % 1018,8 hPa 0,0 mm 10,4 km/h (2 Bft) W 270 0 min 0,5 C 30,4 km/h (5 Bft)
16.05.2016 08:45 6,9 C 7,6 C 64 % 1018,8 hPa 0,0 mm 10,7 km/h (2 Bft) N 360 0 min 0,6 C 28,3 km/h (4 Bft)
16.05.2016 08:50 6,7 C 7,4 C 64 % 1018,8 hPa 0,0 mm 10,4 km/h (2 Bft) W 270 0 min 0,4 C 18,2 km/h (3 Bft)
16.05.2016 08:55 6,5 C 7,0 C 63 % 1019,1 hPa 0,0 mm 10,1 km/h (2 Bft) NW 315 0 min -0,0 C 11,3 km/h (2 Bft)
16.05.2016 09:00 6,2 C 6,4 C 64 % 1019,1 hPa 0,0 mm 10,4 km/h (2 Bft) S 180 0 min -0,1 C 18,5 km/h (3 Bft)
16.05.2016 09:05 6,2 C 6,2 C 65 % 1019,1 hPa 0,0 mm 9,8 km/h (2 Bft) W 270 0 min 0,1 C 11,9 km/h (2 Bft)
16.05.2016 09:10 6,1 C 6,1 C 64 % 1019,1 hPa 0,0 mm 9,8 km/h (2 Bft) W-SW 247 0 min -0,2 C 11,9 km/h (2 Bft)
16.05.2016 09:15 6,2 C 6,2 C 65 % 1019,1 hPa 0,0 mm 9,8 km/h (2 Bft) W-NW 292 0 min 0,1 C 4,8 km/h (1 Bft)
16.05.2016 09:20 6,3 C 6,4 C 65 % 1019,1 hPa 0,0 mm 8,0 km/h (2 Bft) NW 315 0 min 0,2 C 7,2 km/h (2 Bft)
16.05.2016 09:25 6,2 C 6,4 C 65 % 1019,1 hPa 0,0 mm 8,0 km/h (2 Bft) W-NW 292 0 min 0,1 C 22,1 km/h (4 Bft)
16.05.2016 09:30 6,2 C 6,2 C 65 % 1019,1 hPa 0,0 mm 9,8 km/h (2 Bft) W 270 0 min 0,1 C 9,5 km/h (2 Bft)
16.05.2016 09:35 6,6 C 6,6 C 65 % 1018,8 hPa 0,0 mm 9,5 km/h (2 Bft) NW 315 0 min 0,5 C 7,2 km/h (2 Bft)
16.05.2016 09:40 6,6 C 6,8 C 64 % 1018,8 hPa 0,0 mm 8,3 km/h (2 Bft) N 360 0 min 0,3 C 13,7 km/h (3 Bft)
16.05.2016 09:45 6,5 C 6,7 C 63 % 1018,8 hPa 0,0 mm 9,2 km/h (2 Bft) W-NW 292 0 min -0,0 C 13,4 km/h (3 Bft)
16.05.2016 09:50 6,5 C 6,5 C 63 % 1018,8 hPa 0,0 mm 9,8 km/h (2 Bft) W 270 0 min -0,0 C 20,0 km/h (4 Bft)
16.05.2016 09:55 6,1 C 6,3 C 64 % 1018,9 hPa 0,0 mm 8,9 km/h (2 Bft) S 180 0 min -0,2 C 6,3 km/h (2 Bft)
16.05.2016 10:00 6,2 C 6,2 C 64 % 1018,9 hPa 0,0 mm 8,0 km/h (2 Bft) W-SW 247 0 min -0,1 C 11,9 km/h (2 Bft)
16.05.2016 10:05 6,3 C 6,3 C 64 % 1018,9 hPa 0,0 mm 8,9 km/h (2 Bft) W 270 0 min 0,0 C 17,6 km/h (3 Bft)
16.05.2016 10:10 6,5 C 6,4 C 63 % 1018,9 hPa 0,0 mm 9,2 km/h (2 Bft) NW 315 0 min -0,0 C 13,7 km/h (3 Bft)
16.05.2016 10:15 6,3 C 6,3 C 63 % 1018,8 hPa 0,0 mm 9,8 km/h (2 Bft) W 270 0 min -0,2 C 8,9 km/h (2 Bft)
16.05.2016 10:20 6,2 C 6,1 C 64 % 1018,8 hPa 0,0 mm 10,4 km/h (2 Bft) SW 225 0 min -0,1 C 9,8 km/h (2 Bft)
16.05.2016 10:25 6,3 C 6,4 C 64 % 1018,8 hPa 0,0 mm 8,0 km/h (2 Bft) NW 315 0 min 0,0 C 5,1 km/h (1 Bft)
16.05.2016 10:30 6,5 C 7,0 C 63 % 1018,8 hPa 0,0 mm 5,7 km/h (1 Bft) N-NW 337 0 min -0,0 C 0,0 km/h (0 Bft)
16.05.2016 10:35 6,8 C 7,3 C 63 % 1018,8 hPa 0,0 mm 5,4 km/h (1 Bft) W 270 0 min 0,3 C 8,6 km/h (2 Bft)
16.05.2016 10:36 7,1 C 7,7 C 63 % 1018,8 hPa 0,0 mm 6,3 km/h (2 Bft) W-NW 292 0 min 0,5 C 11,0 km/h (2 Bft)
16.05.2016 10:40 7,1 C 7,7 C 63 % 1018,8 hPa 0,0 mm 6,3 km/h (2 Bft) W-NW 292 0 min 0,5 C 11,0 km/h (2 Bft)
16.05.2016 10:45 7,3 C 8,4 C 62 % 1018,8 hPa 0,0 mm 6,6 km/h (2 Bft) NW 315 0 min 0,5 C 8,3 km/h (2 Bft)
16.05.2016 10:50 7,0 C 8,2 C 62 % 1018,8 hPa 0,0 mm 6,0 km/h (2 Bft) N-NW 337 0 min 0,2 C 11,0 km/h (2 Bft)
16.05.2016 10:55 6,9 C 7,9 C 62 % 1018,8 hPa 0,0 mm 7,7 km/h (2 Bft) W-SW 247 0 min 0,1 C 15,2 km/h (3 Bft)
16.05.2016 11:00 7,3 C 8,1 C 62 % 1018,8 hPa 0,0 mm 7,2 km/h (2 Bft) W 270 0 min 0,5 C 6,3 km/h (2 Bft)
16.05.2016 11:05 7,5 C 8,3 C 62 % 1018,8 hPa 0,0 mm 8,3 km/h (2 Bft) S-SW 202 0 min 0,7 C 24,4 km/h (4 Bft)
16.05.2016 11:10 8,2 C 8,7 C 62 % 1018,8 hPa 0,0 mm 8,0 km/h (2 Bft) W 270 0 min 1,4 C 13,7 km/h (3 Bft)
16.05.2016 11:15 8,3 C 9,9 C 61 % 1018,6 hPa 0,0 mm 7,7 km/h (2 Bft) W-SW 247 0 min 1,2 C 3,9 km/h (1 Bft)
16.05.2016 11:20 8,3 C 10,0 C 61 % 1018,6 hPa 0,0 mm 7,7 km/h (2 Bft) N-NW 337 0 min 1,2 C 11,9 km/h (2 Bft)
16.05.2016 11:25 8,7 C 10,3 C 60 % 1018,6 hPa 0,0 mm 7,5 km/h (2 Bft) W-SW 247 0 min 1,4 C 3,9 km/h (1 Bft)
16.05.2016 11:30 9,0 C 10,7 C 60 % 1018,6 hPa 0,0 mm 6,6 km/h (2 Bft) S 180 0 min 1,7 C 5,4 km/h (1 Bft)
16.05.2016 11:35 8,2 C 10,6 C 60 % 1018,8 hPa 0,0 mm 8,0 km/h (2 Bft) W-SW 247 5 min 0,9 C 27,7 km/h (4 Bft)
16.05.2016 11:40 7,6 C 9,1 C 59 % 1018,8 hPa 0,0 mm 11,6 km/h (2 Bft) SW 225 0 min 0,1 C 28,0 km/h (4 Bft)
16.05.2016 11:45 7,5 C 7,7 C 59 % 1018,8 hPa 0,0 mm 12,8 km/h (3 Bft) W-SW 247 0 min 0,0 C 16,7 km/h (3 Bft)
16.05.2016 11:50 7,7 C 7,7 C 59 % 1018,8 hPa 0,0 mm 11,3 km/h (2 Bft) W 270 0 min 0,2 C 15,5 km/h (3 Bft)
16.05.2016 11:55 8,3 C 8,6 C 59 % 1018,6 hPa 0,0 mm 11,0 km/h (2 Bft) W-SW 247 0 min 0,8 C 39,0 km/h (6 Bft)
16.05.2016 12:00 9,3 C 9,9 C 60 % 1018,6 hPa 0,0 mm 9,5 km/h (2 Bft) SO 135 0 min 1,9 C 12,5 km/h (3 Bft)
16.05.2016 12:05 10,2 C 10,6 C 59 % 1018,6 hPa 0,0 mm 12,5 km/h (3 Bft) NW 315 0 min 2,6 C 15,2 km/h (3 Bft)
16.05.2016 12:10 9,4 C 11,1 C 59 % 1018,6 hPa 0,0 mm 14,3 km/h (3 Bft) N-NO 22 0 min 1,8 C 22,7 km/h (4 Bft)
16.05.2016 12:15 8,4 C 10,5 C 58 % 1018,9 hPa 0,0 mm 16,7 km/h (3 Bft) W 270 0 min 0,6 C 27,4 km/h (4 Bft)
16.05.2016 12:20 8,1 C 9,2 C 58 % 1018,9 hPa 0,0 mm 17,6 km/h (3 Bft) W-NW 292 0 min 0,3 C 20,6 km/h (4 Bft)
16.05.2016 12:25 8,4 C 8,8 C 59 % 1018,9 hPa 0,0 mm 12,5 km/h (3 Bft) SW 225 0 min 0,9 C 14,6 km/h (3 Bft)
16.05.2016 12:30 8,0 C 8,6 C 59 % 1018,9 hPa 0,0 mm 10,7 km/h (2 Bft) SO 135 0 min 0,5 C 8,3 km/h (2 Bft)
16.05.2016 12:35 7,5 C 7,4 C 59 % 1018,8 hPa 0,0 mm 12,8 km/h (3 Bft) W 270 0 min 0,0 C 8,6 km/h (2 Bft)
16.05.2016 12:40 7,4 C 7,3 C 59 % 1018,8 hPa 0,0 mm 12,8 km/h (3 Bft) W-NW 292 0 min -0,1 C 19,1 km/h (3 Bft)
16.05.2016 12:45 7,7 C 7,6 C 60 % 1018,8 hPa 0,0 mm 10,4 km/h (2 Bft) W-SW 247 0 min 0,4 C 11,0 km/h (2 Bft)
16.05.2016 12:50 7,9 C 7,9 C 60 % 1018,8 hPa 0,0 mm 9,8 km/h (2 Bft) W-NW 292 0 min 0,6 C 14,0 km/h (3 Bft)
16.05.2016 12:55 7,7 C 8,3 C 60 % 1018,9 hPa 0,0 mm 9,8 km/h (2 Bft) W 270 0 min 0,4 C 14,0 km/h (3 Bft)
16.05.2016 13:00 7,5 C 7,6 C 60 % 1018,9 hPa 0,0 mm 11,3 km/h (2 Bft) W 270 0 min 0,2 C 10,1 km/h (2 Bft)
16.05.2016 13:05 7,6 C 7,4 C 60 % 1018,9 hPa 0,0 mm 12,8 km/h (3 Bft) W-NW 292 0 min 0,3 C 22,7 km/h (4 Bft)
16.05.2016 13:10 7,3 C 7,3 C 60 % 1018,9 hPa 0,0 mm 11,3 km/h (2 Bft) SW 225 0 min 0,1 C 7,5 km/h (2 Bft)
16.05.2016 13:15 7,1 C 6,9 C 60 % 1018,8 hPa 0,0 mm 12,8 km/h (3 Bft) S 180 0 min -0,1 C 20,9 km/h (4 Bft)
16.05.2016 13:20 7,0 C 6,9 C 60 % 1018,8 hPa 0,0 mm 14,6 km/h (3 Bft) W-NW 292 0 min -0,2 C 28,9 km/h (5 Bft)
16.05.2016 13:25 6,9 C 6,7 C 60 % 1018,8 hPa 0,0 mm 17,0 km/h (3 Bft) N-NW 337 0 min -0,3 C 47,4 km/h (6 Bft)
16.05.2016 13:30 6,9 C 6,7 C 60 % 1018,8 hPa 0,0 mm 15,5 km/h (3 Bft) W-NW 292 0 min -0,3 C 13,7 km/h (3 Bft)
16.05.2016 13:35 6,6 C 6,2 C 61 % 1018,7 hPa 0,0 mm 14,0 km/h (3 Bft) W-SW 247 0 min -0,4 C 9,2 km/h (2 Bft)
16.05.2016 13:36 6,7 C 6,4 C 62 % 1018,7 hPa 0,0 mm 14,6 km/h (3 Bft) W-SW 247 0 min -0,1 C 12,2 km/h (2 Bft)
16.05.2016 13:41 6,7 C 6,1 C 62 % 1018,7 hPa 0,0 mm 14,6 km/h (3 Bft) W-SW 247 0 min -0,1 C 12,2 km/h (2 Bft)
16.05.2016 13:45 6,6 C 5,9 C 64 % 1018,7 hPa 0,0 mm 12,8 km/h (3 Bft) W-SW 247 0 min 0,3 C 10,7 km/h (2 Bft)
16.05.2016 13:50 6,5 C 5,8 C 64 % 1018,7 hPa 0,0 mm 13,4 km/h (3 Bft) W-SW 247 0 min 0,2 C 19,4 km/h (3 Bft)
16.05.2016 13:55 6,7 C 6,0 C 65 % 1018,7 hPa 0,0 mm 12,8 km/h (3 Bft) NW 315 0 min 0,6 C 8,9 km/h (2 Bft)
16.05.2016 14:00 6,9 C 6,4 C 66 % 1018,7 hPa 0,0 mm 10,7 km/h (2 Bft) NW 315 0 min 1,0 C 16,4 km/h (3 Bft)
16.05.2016 14:05 7,0 C 6,8 C 66 % 1018,7 hPa 0,0 mm 7,7 km/h (2 Bft) W-NW 292 0 min 1,1 C 14,0 km/h (3 Bft)
16.05.2016 14:10 7,4 C 7,3 C 67 % 1018,7 hPa 0,0 mm 7,7 km/h (2 Bft) W-SW 247 0 min 1,7 C 0,0 km/h (0 Bft)
16.05.2016 14:15 7,9 C 8,1 C 67 % 1018,6 hPa 0,0 mm 8,9 km/h (2 Bft) W-SW 247 0 min 2,2 C 10,1 km/h (2 Bft)
16.05.2016 14:20 8,3 C 8,9 C 67 % 1018,6 hPa 0,0 mm 9,2 km/h (2 Bft) W 270 0 min 2,5 C 13,1 km/h (3 Bft)
16.05.2016 14:25 8,6 C 9,9 C 66 % 1018,6 hPa 0,0 mm 10,4 km/h (2 Bft) W 270 0 min 2,6 C 13,7 km/h (3 Bft)
16.05.2016 14:30 8,9 C 10,3 C 66 % 1018,6 hPa 0,0 mm 9,8 km/h (2 Bft) S 180 0 min 2,9 C 8,3 km/h (2 Bft)
16.05.2016 14:35 8,5 C 10,8 C 65 % 1018,4 hPa 0,0 mm 9,5 km/h (2 Bft) NW 315 5 min 2,3 C 10,4 km/h (2 Bft)
16.05.2016 14:40 9,1 C 10,7 C 66 % 1018,4 hPa 0,0 mm 9,5 km/h (2 Bft) W 270 0 min 3,1 C 13,1 km/h (3 Bft)
16.05.2016 14:45 9,3 C 11,4 C 65 % 1018,4 hPa 0,0 mm 10,1 km/h (2 Bft) W-SW 247 0 min 3,1 C 23,2 km/h (4 Bft)
16.05.2016 14:50 9,0 C 11,1 C 64 % 1018,4 hPa 0,0 mm 11,0 km/h (2 Bft) W-NW 292 0 min 2,6 C 23,2 km/h (4 Bft)
16.05.2016 14:55 8,8 C 10,5 C 64 % 1018,6 hPa 0,0 mm 11,9 km/h (2 Bft) S 180 0 min 2,4 C 11,9 km/h (2 Bft)
16.05.2016 15:00 9,0 C 10,4 C 64 % 1018,6 hPa 0,0 mm 11,3 km/h (2 Bft) SW 225 0 min 2,6 C 25,6 km/h (4 Bft)
16.05.2016 15:05 9,3 C 10,5 C 63 % 1018,6 hPa 0,0 mm 11,9 km/h (2 Bft) NO 45 0 min 2,6 C 19,4 km/h (3 Bft)
16.05.2016 15:10 9,7 C 10,6 C 63 % 1018,6 hPa 0,0 mm 13,7 km/h (3 Bft) W-NW 292 0 min 3,0 C 21,8 km/h (4 Bft)
16.05.2016 15:15 9,5 C 11,0 C 62 % 1018,5 hPa 0,0 mm 14,6 km/h (3 Bft) W 270 0 min 2,6 C 21,2 km/h (4 Bft)
16.05.2016 15:20 9,1 C 10,8 C 62 % 1018,5 hPa 0,0 mm 16,4 km/h (3 Bft) W 270 0 min 2,2 C 28,6 km/h (4 Bft)
16.05.2016 15:25 9,6 C 10,3 C 62 % 1018,5 hPa 0,0 mm 15,8 km/h (3 Bft) SW 225 0 min 2,7 C 11,9 km/h (2 Bft)
16.05.2016 15:30 10,6 C 11,1 C 62 % 1018,5 hPa 0,0 mm 13,7 km/h (3 Bft) W-SW 247 0 min 3,6 C 13,4 km/h (3 Bft)
16.05.2016 15:35 12,1 C 13,7 C 62 % 1018,1 hPa 0,0 mm 9,5 km/h (2 Bft) SW 225 0 min 5,0 C 11,0 km/h (2 Bft)
16.05.2016 15:40 12,0 C 14,7 C 61 % 1018,1 hPa 0,0 mm 10,1 km/h (2 Bft) W 270 5 min 4,7 C 14,6 km/h (3 Bft)
16.05.2016 15:45 12,3 C 15,0 C 60 % 1018,1 hPa 0,0 mm 11,9 km/h (2 Bft) NW 315 5 min 4,8 C 24,4 km/h (4 Bft)
16.05.2016 15:50 11,1 C 14,9 C 59 % 1018,1 hPa 0,0 mm 15,2 km/h (3 Bft) NW 315 5 min 3,4 C 27,4 km/h (4 Bft)
16.05.2016 15:55 11,1 C 14,1 C 59 % 1018,0 hPa 0,0 mm 14,6 km/h (3 Bft) SO 135 5 min 3,4 C 8,3 km/h (2 Bft)
16.05.2016 16:00 11,4 C 14,0 C 59 % 1018,0 hPa 0,0 mm 11,0 km/h (2 Bft) NW 315 5 min 3,7 C 9,2 km/h (2 Bft)
16.05.2016 16:05 10,6 C 13,6 C 59 % 1018,0 hPa 0,0 mm 12,5 km/h (3 Bft) W-NW 292 5 min 2,9 C 17,0 km/h (3 Bft)
16.05.2016 16:10 10,2 C 12,5 C 59 % 1018,0 hPa 0,0 mm 12,5 km/h (3 Bft) W-NW 292 5 min 2,6 C 14,9 km/h (3 Bft)
16.05.2016 16:15 10,0 C 11,8 C 59 % 1018,0 hPa 0,0 mm 14,3 km/h (3 Bft) W-SW 247 0 min 2,4 C 21,2 km/h (4 Bft)
16.05.2016 16:20 10,0 C 11,1 C 59 % 1018,0 hPa 0,0 mm 14,0 km/h (3 Bft) SW 225 0 min 2,4 C 20,3 km/h (4 Bft)
16.05.2016 16:25 10,0 C 11,2 C 59 % 1018,0 hPa 0,0 mm 12,2 km/h (2 Bft) W 270 0 min 2,4 C 14,9 km/h (3 Bft)
16.05.2016 16:30 9,8 C 10,9 C 59 % 1018,0 hPa 0,0 mm 11,9 km/h (2 Bft) SW 225 0 min 2,2 C 13,1 km/h (3 Bft)
16.05.2016 16:35 9,3 C 9,9 C 59 % 1018,1 hPa 0,0 mm 12,5 km/h (3 Bft) W 270 0 min 1,7 C 9,8 km/h (2 Bft)
16.05.2016 16:40 8,9 C 9,1 C 59 % 1018,1 hPa 0,0 mm 13,7 km/h (3 Bft) W-NW 292 0 min 1,3 C 4,8 km/h (1 Bft)
16.05.2016 16:41 8,9 C 9,0 C 59 % 1018,1 hPa 0,0 mm 11,9 km/h (2 Bft) W-SW 247 0 min 1,3 C 20,3 km/h (4 Bft)
16.05.2016 16:42 8,9 C 9,0 C 59 % 1018,1 hPa 0,0 mm 11,9 km/h (2 Bft) W-SW 247 0 min 1,3 C 20,3 km/h (4 Bft)
16.05.2016 16:45 8,9 C 9,0 C 59 % 1018,1 hPa 0,0 mm 11,9 km/h (2 Bft) W-SW 247 0 min 1,3 C 20,3 km/h (4 Bft)
16.05.2016 16:50 9,0 C 9,3 C 59 % 1018,1 hPa 0,0 mm 8,9 km/h (2 Bft) NW 315 0 min 1,4 C 6,6 km/h (2 Bft)
16.05.2016 16:55 9,2 C 9,8 C 60 % 1017,9 hPa 0,0 mm 7,7 km/h (2 Bft) NW 315 0 min 1,8 C 11,6 km/h (2 Bft)
16.05.2016 17:00 8,8 C 9,1 C 60 % 1017,9 hPa 0,0 mm 10,4 km/h (2 Bft) SW 225 0 min 1,5 C 17,0 km/h (3 Bft)
16.05.2016 17:05 8,9 C 8,9 C 60 % 1017,9 hPa 0,0 mm 12,8 km/h (3 Bft) W-SW 247 0 min 1,6 C 17,9 km/h (3 Bft)
16.05.2016 17:10 9,0 C 9,1 C 60 % 1017,9 hPa 0,0 mm 12,2 km/h (2 Bft) W-SW 247 0 min 1,7 C 9,2 km/h (2 Bft)
16.05.2016 17:15 9,0 C 9,3 C 60 % 1017,7 hPa 0,0 mm 9,5 km/h (2 Bft) O-NO 67 0 min 1,7 C 6,3 km/h (2 Bft)
16.05.2016 17:20 8,5 C 8,9 C 60 % 1017,7 hPa 0,0 mm 9,2 km/h (2 Bft) W-SW 247 0 min 1,2 C 26,2 km/h (4 Bft)
16.05.2016 17:25 7,7 C 7,4 C 62 % 1017,7 hPa 0,0 mm 10,4 km/h (2 Bft) W 270 0 min 0,9 C 19,4 km/h (3 Bft)
16.05.2016 17:30 7,2 C 6,6 C 64 % 1017,7 hPa 0,0 mm 12,2 km/h (2 Bft) W-NW 292 0 min 0,9 C 8,9 km/h (2 Bft)
16.05.2016 17:35 7,2 C 6,4 C 65 % 1017,7 hPa 0,0 mm 10,7 km/h (2 Bft) NW 315 0 min 1,1 C 21,8 km/h (4 Bft)
16.05.2016 17:40 7,5 C 6,9 C 66 % 1017,7 hPa 0,0 mm 8,0 km/h (2 Bft) W-NW 292 0 min 1,6 C 7,7 km/h (2 Bft)
16.05.2016 17:45 7,7 C 7,2 C 66 % 1017,7 hPa 0,0 mm 8,6 km/h (2 Bft) W-NW 292 0 min 1,8 C 19,4 km/h (3 Bft)
16.05.2016 17:50 7,7 C 7,4 C 66 % 1017,7 hPa 0,0 mm 8,0 km/h (2 Bft) NW 315 0 min 1,8 C 11,3 km/h (2 Bft)
16.05.2016 17:55 7,1 C 6,5 C 68 % 1017,7 hPa 0,7 mm 11,9 km/h (2 Bft) NW 315 0 min 1,6 C 21,5 km/h (4 Bft)
16.05.2016 18:00 6,8 C 6,1 C 70 % 1017,7 hPa 0,0 mm 11,0 km/h (2 Bft) NW 315 0 min 1,7 C 6,0 km/h (2 Bft)
16.05.2016 18:05 6,9 C 6,4 C 71 % 1017,7 hPa 0,0 mm 7,5 km/h (2 Bft) N-NW 337 0 min 2,0 C 3,9 km/h (1 Bft)
16.05.2016 18:10 6,9 C 6,5 C 71 % 1017,7 hPa 0,0 mm 5,4 km/h (1 Bft) W 270 0 min 2,0 C 9,8 km/h (2 Bft)
16.05.2016 18:15 6,6 C 6,1 C 72 % 1017,8 hPa 0,0 mm 7,2 km/h (2 Bft) W 270 0 min 1,9 C 8,0 km/h (2 Bft)
16.05.2016 18:20 6,3 C 5,8 C 72 % 1017,8 hPa 0,0 mm 7,2 km/h (2 Bft) N-NO 22 0 min 1,6 C 0,0 km/h (0 Bft)
16.05.2016 18:25 6,1 C 5,6 C 74 % 1017,8 hPa 0,0 mm 7,7 km/h (2 Bft) W 270 0 min 1,8 C 15,8 km/h (3 Bft)
16.05.2016 18:30 5,9 C 5,3 C 76 % 1017,8 hPa 0,0 mm 8,9 km/h (2 Bft) W-NW 292 0 min 2,0 C 14,3 km/h (3 Bft)
16.05.2016 18:35 6,0 C 5,3 C 76 % 1017,8 hPa 0,0 mm 10,4 km/h (2 Bft) W 270 0 min 2,1 C 10,1 km/h (2 Bft)
16.05.2016 18:40 6,1 C 5,5 C 76 % 1017,8 hPa 0,0 mm 8,0 km/h (2 Bft) O 90 0 min 2,2 C 3,3 km/h (1 Bft)
16.05.2016 18:45 6,0 C 5,5 C 76 % 1017,8 hPa 0,0 mm 7,5 km/h (2 Bft) NW 315 0 min 2,1 C 8,3 km/h (2 Bft)
16.05.2016 18:50 6,2 C 5,7 C 76 % 1017,8 hPa 0,0 mm 6,9 km/h (2 Bft) W 270 0 min 2,3 C 8,3 km/h (2 Bft)
16.05.2016 18:55 6,1 C 5,8 C 77 % 1017,8 hPa 0,0 mm 4,2 km/h (1 Bft) W-NW 292 0 min 2,4 C 3,9 km/h (1 Bft)
16.05.2016 19:00 5,9 C 5,6 C 78 % 1017,8 hPa 0,0 mm 4,8 km/h (1 Bft) W-SW 247 0 min 2,4 C 6,3 km/h (2 Bft)
16.05.2016 19:05 5,8 C 5,5 C 78 % 1017,8 hPa 0,0 mm 6,0 km/h (2 Bft) SW 225 0 min 2,3 C 7,5 km/h (2 Bft)
16.05.2016 19:10 5,8 C 5,5 C 79 % 1017,8 hPa 0,0 mm 5,1 km/h (1 Bft) W-NW 292 0 min 2,4 C 4,8 km/h (1 Bft)
16.05.2016 19:15 5,7 C 5,4 C 79 % 1017,6 hPa 0,0 mm 4,5 km/h (1 Bft) NW 315 0 min 2,3 C 10,1 km/h (2 Bft)
16.05.2016 19:20 5,7 C 5,4 C 79 % 1017,6 hPa 0,0 mm 4,5 km/h (1 Bft) NW 315 0 min 2,3 C 7,2 km/h (2 Bft)
16.05.2016 19:25 5,6 C 5,3 C 79 % 1017,6 hPa 0,0 mm 3,9 km/h (1 Bft) W-NW 292 0 min 2,3 C 8,3 km/h (2 Bft)
16.05.2016 19:30 5,5 C 5,2 C 79 % 1017,6 hPa 0,0 mm 3,9 km/h (1 Bft) O 90 0 min 2,2 C 4,8 km/h (1 Bft)
16.05.2016 19:35 5,3 C 5,1 C 79 % 1017,8 hPa 0,7 mm 4,8 km/h (1 Bft) W-NW 292 0 min 2,0 C 5,4 km/h (1 Bft)
16.05.2016 19:40 5,2 C 5,0 C 80 % 1017,8 hPa 0,0 mm 4,5 km/h (1 Bft) NW 315 0 min 2,0 C 0,0 km/h (0 Bft)
16.05.2016 19:41 5,1 C 4,9 C 81 % 1017,8 hPa 0,0 mm 4,2 km/h (1 Bft) W-NW 292 0 min 2,1 C 10,7 km/h (2 Bft)
16.05.2016 19:43 5,1 C 4,9 C 81 % 1017,8 hPa 0,0 mm 4,2 km/h (1 Bft) W-NW 292 0 min 2,1 C 10,7 km/h (2 Bft)
16.05.2016 19:45 5,1 C 4,9 C 81 % 1017,8 hPa 0,0 mm 4,2 km/h (1 Bft) W-NW 292 0 min 2,1 C 10,7 km/h (2 Bft)
16.05.2016 19:50 5,0 C 4,8 C 82 % 1017,8 hPa 0,7 mm 5,4 km/h (1 Bft) W 270 0 min 2,2 C 19,1 km/h (3 Bft)
16.05.2016 19:55 4,7 C 4,2 C 83 % 1018,1 hPa 0,7 mm 8,6 km/h (2 Bft) W-SW 247 0 min 2,1 C 14,0 km/h (3 Bft)
16.05.2016 20:00 4,4 C 3,9 C 83 % 1018,1 hPa 0,0 mm 9,2 km/h (2 Bft) W-SW 247 0 min 1,8 C 16,4 km/h (3 Bft)
16.05.2016 20:05 3,8 C 3,2 C 83 % 1018,1 hPa 0,7 mm 9,8 km/h (2 Bft) SW 225 0 min 1,2 C 13,7 km/h (3 Bft)
16.05.2016 20:10 3,6 C 3,0 C 83 % 1018,1 hPa 1,4 mm 8,6 km/h (2 Bft) SW 225 0 min 1,0 C 18,2 km/h (3 Bft)
16.05.2016 20:15 3,0 C 2,6 C 82 % 1018,3 hPa 0,0 mm 6,6 km/h (2 Bft) N 360 0 min 0,2 C 6,6 km/h (2 Bft)
16.05.2016 20:20 2,9 C 2,5 C 83 % 1018,3 hPa 0,7 mm 6,3 km/h (2 Bft) S 180 0 min 0,3 C 5,4 km/h (1 Bft)
16.05.2016 20:25 2,9 C 2,5 C 83 % 1018,3 hPa 0,0 mm 5,7 km/h (1 Bft) SW 225 0 min 0,3 C 4,8 km/h (1 Bft)
16.05.2016 20:30 2,9 C 2,6 C 83 % 1018,3 hPa 0,0 mm 3,9 km/h (1 Bft) W-SW 247 0 min 0,3 C 0,0 km/h (0 Bft)
16.05.2016 20:35 2,9 C 2,6 C 84 % 1018,6 hPa 0,0 mm 2,1 km/h (1 Bft) NW 315 0 min 0,5 C 0,0 km/h (0 Bft)
16.05.2016 20:40 2,9 C 2,6 C 85 % 1018,6 hPa 0,7 mm 3,9 km/h (1 Bft) W-SW 247 0 min 0,6 C 5,4 km/h (1 Bft)
16.05.2016 20:45 2,9 C 2,4 C 85 % 1018,6 hPa 0,0 mm 6,6 km/h (2 Bft) W-NW 292 0 min 0,6 C 27,7 km/h (4 Bft)
16.05.2016 20:50 2,8 C 2,3 C 86 % 1018,6 hPa 0,0 mm 6,6 km/h (2 Bft) W-SW 247 0 min 0,7 C 4,2 km/h (1 Bft)
16.05.2016 20:55 2,7 C 2,2 C 86 % 1018,8 hPa 0,7 mm 6,9 km/h (2 Bft) W 270 0 min 0,6 C 11,3 km/h (2 Bft)
16.05.2016 21:00 2,5 C 2,2 C 86 % 1018,8 hPa 0,0 mm 5,4 km/h (1 Bft) S 180 0 min 0,4 C 4,2 km/h (1 Bft)
16.05.2016 21:05 2,4 C 2,2 C 86 % 1018,8 hPa 0,0 mm 4,2 km/h (1 Bft) N-NW 337 0 min 0,3 C 5,7 km/h (1 Bft)
16.05.2016 21:10 2,3 C 2,1 C 86 % 1018,8 hPa 0,0 mm 3,9 km/h (1 Bft) SW 225 0 min 0,2 C 8,9 km/h (2 Bft)
16.05.2016 21:15 2,3 C 2,0 C 86 % 1019,1 hPa 0,7 mm 3,9 km/h (1 Bft) SW 225 0 min 0,2 C 8,0 km/h (2 Bft)
16.05.2016 21:20 2,3 C 2,0 C 86 % 1019,1 hPa 0,0 mm 3,9 km/h (1 Bft) N-NW 337 0 min 0,2 C 0,0 km/h (0 Bft)
16.05.2016 21:25 2,3 C 2,0 C 86 % 1019,1 hPa 0,0 mm 3,3 km/h (1 Bft) W-SW 247 0 min 0,2 C 8,6 km/h (2 Bft)
16.05.2016 21:30 2,3 C 2,0 C 86 % 1019,1 hPa 0,0 mm 3,0 km/h (1 Bft) S 180 0 min 0,2 C 8,0 km/h (2 Bft)
16.05.2016 21:35 2,3 C 2,0 C 86 % 1019,2 hPa 0,0 mm 2,7 km/h (1 Bft) S 180 0 min 0,2 C 6,3 km/h (2 Bft)
16.05.2016 21:40 2,3 C 2,0 C 86 % 1019,2 hPa 0,0 mm 2,7 km/h (1 Bft) W-SW 247 0 min 0,2 C 3,9 km/h (1 Bft)
16.05.2016 21:45 2,3 C 2,1 C 87 % 1019,2 hPa 0,0 mm 4,2 km/h (1 Bft) S-SO 157 0 min 0,4 C 7,5 km/h (2 Bft)
16.05.2016 21:50 2,4 C 2,1 C 87 % 1019,2 hPa 0,0 mm 3,6 km/h (1 Bft) W-NW 292 0 min 0,5 C 4,5 km/h (1 Bft)
16.05.2016 21:55 2,4 C 2,2 C 87 % 1019,2 hPa 0,0 mm 3,3 km/h (1 Bft) NW 315 0 min 0,5 C 5,1 km/h (1 Bft)
16.05.2016 22:00 2,5 C 2,2 C 87 % 1019,2 hPa 0,0 mm 3,0 km/h (1 Bft) W-SW 247 0 min 0,6 C 3,0 km/h (1 Bft)
16.05.2016 22:05 2,5 C 2,3 C 87 % 1019,2 hPa 0,0 mm 1,8 km/h (1 Bft) W-NW 292 0 min 0,6 C 0,0 km/h (0 Bft)
16.05.2016 22:10 2,5 C 2,3 C 87 % 1019,2 hPa 0,7 mm 1,8 km/h (1 Bft) W 270 0 min 0,6 C 3,6 km/h (1 Bft)
16.05.2016 22:15 2,5 C 2,3 C 87 % 1019,2 hPa 0,0 mm 4,2 km/h (1 Bft) S 180 0 min 0,6 C 10,7 km/h (2 Bft)
16.05.2016 22:20 2,6 C 2,4 C 87 % 1019,2 hPa 0,0 mm 3,9 km/h (1 Bft) O-SO 112 0 min 0,7 C 0,0 km/h (0 Bft)
16.05.2016 22:25 2,6 C 2,4 C 87 % 1019,2 hPa 0,0 mm 3,3 km/h (1 Bft) W 270 0 min 0,7 C 0,0 km/h (0 Bft)
16.05.2016 22:30 2,6 C 2,4 C 87 % 1019,2 hPa 0,0 mm 3,0 km/h (1 Bft) W-SW 247 0 min 0,7 C 5,1 km/h (1 Bft)
16.05.2016 22:35 2,7 C 2,4 C 87 % 1019,4 hPa 0,0 mm 1,2 km/h (1 Bft) W-SW 247 0 min 0,8 C 4,8 km/h (1 Bft)
16.05.2016 22:40 2,7 C 2,5 C 88 % 1019,4 hPa 0,0 mm 0,9 km/h (0 Bft) W-SW 247 0 min 0,9 C 4,5 km/h (1 Bft)
16.05.2016 22:41 2,8 C 2,6 C 88 % 1019,4 hPa 0,0 mm 1,2 km/h (1 Bft) NW 315 0 min 1,0 C 3,9 km/h (1 Bft)
16.05.2016 22:44 2,8 C 2,6 C 88 % 1019,4 hPa 0,0 mm 1,2 km/h (1 Bft) NW 315 0 min 1,0 C 3,9 km/h (1 Bft)
16.05.2016 22:45 2,8 C 2,6 C 88 % 1019,4 hPa 0,0 mm 1,2 km/h (1 Bft) NW 315 0 min 1,0 C 3,9 km/h (1 Bft)
16.05.2016 22:50 2,9 C 2,6 C 88 % 1019,4 hPa 0,0 mm 1,5 km/h (1 Bft) W-SW 247 0 min 1,1 C 3,0 km/h (1 Bft)
16.05.2016 22:55 2,9 C 2,7 C 88 % 1019,4 hPa 0,0 mm 2,1 km/h (1 Bft) W-NW 292 0 min 1,1 C 3,6 km/h (1 Bft)
16.05.2016 23:00 3,0 C 2,8 C 87 % 1019,4 hPa 0,0 mm 1,8 km/h (1 Bft) W 270 0 min 1,1 C 0,0 km/h (0 Bft)
16.05.2016 23:05 3,0 C 2,8 C 87 % 1019,4 hPa 0,0 mm 0,3 km/h (0 Bft) SW 225 0 min 1,1 C 0,0 km/h (0 Bft)
16.05.2016 23:10 3,1 C 2,9 C 87 % 1019,4 hPa 0,0 mm 0,0 km/h (0 Bft) W 270 0 min 1,2 C 0,0 km/h (0 Bft)
16.05.2016 23:15 3,1 C 2,9 C 87 % 1019,4 hPa 0,0 mm 0,0 km/h (0 Bft) W 270 0 min 1,2 C 0,0 km/h (0 Bft)
16.05.2016 23:20 3,2 C 3,0 C 87 % 1019,4 hPa 0,0 mm 0,0 km/h (0 Bft) NW 315 0 min 1,2 C 0,0 km/h (0 Bft)
16.05.2016 23:25 3,3 C 3,1 C 87 % 1019,4 hPa 0,0 mm 0,0 km/h (0 Bft) W 270 0 min 1,3 C 0,0 km/h (0 Bft)
16.05.2016 23:30 3,3 C 3,1 C 87 % 1019,4 hPa 0,0 mm 0,0 km/h (0 Bft) SW 225 0 min 1,3 C 0,0 km/h (0 Bft)
16.05.2016 23:35 3,2 C 3,0 C 87 % 1019,3 hPa 0,0 mm 0,9 km/h (0 Bft) S 180 0 min 1,2 C 0,0 km/h (0 Bft)
16.05.2016 23:40 3,3 C 3,1 C 87 % 1019,3 hPa 0,0 mm 1,8 km/h (1 Bft) SW 225 0 min 1,3 C 0,0 km/h (0 Bft)
16.05.2016 23:45 3,3 C 3,1 C 87 % 1019,3 hPa 0,0 mm 1,2 km/h (1 Bft) SW 225 0 min 1,3 C 0,0 km/h (0 Bft)
16.05.2016 23:50 3,3 C 3,1 C 87 % 1019,3 hPa 0,0 mm 0,3 km/h (0 Bft) SW 225 0 min 1,3 C 0,0 km/h (0 Bft)
16.05.2016 23:55 3,3 C 3,1 C 88 % 1019,2 hPa 0,0 mm 1,8 km/h (1 Bft) W-SW 247 0 min 1,5 C 8,0 km/h (2 Bft)
_ Min-Zeit 21:45 21:40 12:20 19:30 - 23:30 - - - 05:50 23:50
Minimum _ 2,3 C 2,0 C 58 % 1017,6 hPa - 0,0 km/h (0 Bft) - - - -1,8 C 0,0 km/h (0 Bft)
_ Max-Zeit 15:45 15:45 23:55 01:10 20:10 12:20 - - 16:10 15:35 13:25
Maximum _ 12,3 C 15,0 C 88 % 1019,7 hPa 1,4 mm 17,6 km/h
W-NW (3 Bft)
- - 5 min 5,0 C 47,4 km/h
N-NW (6 Bft)
Durchschnitt _ 5,4 C 5,6 C 70 % 1018,7 hPa #8,2 mm 6,6 km/h (2 Bft) W-SW - #1:10 h 0,4 C 9,2 km/h (2 Bft)